Time,TemperatureF,DewpointF,PressureIn,WindDirection,WindDirectionDegrees,WindSpeedMPH,WindSpeedGustMPH,Humidity,HourlyPrecipIn,Conditions,Clouds,dailyrainin,SoftwareType,DateUTC
2013-09-04 00:02:00,65.0,49.0,30.36,North,-999,-999.0,-999.0,57,-99.99,,,-99.99,,2013-09-04 06:02:00,
2013-09-04 00:22:00,64.0,50.0,30.36,North,-999,-999.0,-999.0,58,-99.99,,,-99.99,,2013-09-04 06:22:00,
2013-09-04 00:32:00,64.0,50.0,30.36,North,-999,-999.0,-999.0,58,-99.99,,,-99.99,,2013-09-04 06:32:00,
2013-09-04 00:52:00,63.0,50.0,30.36,North,-999,-999.0,-999.0,62,-99.99,,,-99.99,,2013-09-04 06:52:00,
2013-09-04 01:02:00,63.0,50.0,30.36,North,-999,-999.0,-999.0,62,-99.99,,,-99.99,,2013-09-04 07:02:00,
2013-09-04 01:22:00,60.0,48.0,30.36,North,-999,-999.0,-999.0,64,-99.99,,,-99.99,,2013-09-04 07:22:00,
2013-09-04 01:32:00,60.0,48.0,30.36,North,-999,-999.0,-999.0,64,-99.99,,,-99.99,,2013-09-04 07:32:00,
2013-09-04 01:52:00,62.0,48.0,30.36,North,-999,-999.0,-999.0,60,-99.99,,,-99.99,,2013-09-04 07:52:00,
2013-09-04 02:02:00,62.0,48.0,30.36,North,-999,-999.0,-999.0,60,-99.99,,,-99.99,,2013-09-04 08:02:00,
2013-09-04 02:22:00,60.0,48.0,30.36,North,-999,-999.0,-999.0,63,-99.99,,,-99.99,,2013-09-04 08:22:00,
2013-09-04 02:32:00,60.0,48.0,30.36,North,-999,-999.0,-999.0,63,-99.99,,,-99.99,,2013-09-04 08:32:00,
2013-09-04 02:52:00,57.0,48.0,30.37,North,-999,-999.0,-999.0,69,-99.99,,,-99.99,,2013-09-04 08:52:00,
2013-09-04 03:01:00,57.0,48.0,30.37,North,-999,-999.0,-999.0,69,-99.99,,,-99.99,,2013-09-04 09:01:00,
2013-09-04 03:22:00,55.0,47.0,30.37,North,-999,-999.0,-999.0,75,-99.99,,,-99.99,,2013-09-04 09:22:00,
2013-09-04 03:33:00,55.0,47.0,30.37,North,-999,-999.0,-999.0,75,-99.99,,,-99.99,,2013-09-04 09:33:00,
2013-09-04 03:53:00,55.0,47.0,30.37,North,-999,-999.0,-999.0,72,-99.99,,,-99.99,,2013-09-04 09:53:00,
2013-09-04 04:03:00,55.0,47.0,30.37,North,-999,-999.0,-999.0,72,-99.99,,,-99.99,,2013-09-04 10:03:00,
2013-09-04 04:23:00,54.0,46.0,30.38,North,-999,-999.0,-999.0,74,-99.99,,,-99.99,,2013-09-04 10:23:00,
2013-09-04 04:32:00,54.0,46.0,30.38,North,-999,-999.0,-999.0,74,-99.99,,,-99.99,,2013-09-04 10:32:00,
2013-09-04 04:52:00,55.0,46.0,30.38,North,-999,-999.0,-999.0,71,-99.99,,,-99.99,,2013-09-04 10:52:00,
2013-09-04 05:02:00,55.0,46.0,30.38,North,-999,-999.0,-999.0,71,-99.99,,,-99.99,,2013-09-04 11:02:00,
2013-09-04 05:22:00,54.0,46.0,30.38,North,-999,-999.0,-999.0,74,-99.99,,,-99.99,,2013-09-04 11:22:00,
2013-09-04 05:33:00,54.0,46.0,30.38,North,-999,-999.0,-999.0,74,-99.99,,,-99.99,,2013-09-04 11:33:00,
2013-09-04 05:42:00,54.0,46.0,30.38,North,-999,-999.0,-999.0,74,-99.99,,,-99.99,,2013-09-04 11:42:00,
2013-09-04 05:52:00,57.0,46.0,30.39,North,-999,-999.0,-999.0,67,-99.99,,,-99.99,,2013-09-04 11:52:00,
2013-09-04 06:02:00,57.0,46.0,30.39,North,-999,-999.0,-999.0,67,-99.99,,,-99.99,,2013-09-04 12:02:00,
2013-09-04 06:21:00,56.0,45.0,30.40,North,-999,-999.0,-999.0,67,-99.99,,,-99.99,,2013-09-04 12:21:00,
2013-09-04 06:32:00,56.0,45.0,30.40,North,-999,-999.0,-999.0,67,-99.99,,,-99.99,,2013-09-04 12:32:00,
2013-09-04 07:21:00,53.0,46.0,30.42,North,-999,-999.0,-999.0,74,-99.99,,,-99.99,,2013-09-04 13:21:00,
2013-09-04 07:31:00,53.0,46.0,30.42,North,-999,-999.0,-999.0,74,-99.99,,,-99.99,,2013-09-04 13:31:00,
2013-09-04 08:52:00,60.0,46.0,30.43,North,-999,-999.0,-999.0,60,-99.99,,,-99.99,,2013-09-04 14:52:00,
2013-09-04 09:02:00,60.0,46.0,30.43,North,-999,-999.0,-999.0,60,-99.99,,,-99.99,,2013-09-04 15:02:00,
2013-09-04 09:22:00,62.0,45.0,30.44,North,-999,-999.0,-999.0,54,-99.99,,,-99.99,,2013-09-04 15:22:00,
2013-09-04 09:33:00,62.0,45.0,30.44,North,-999,-999.0,-999.0,54,-99.99,,,-99.99,,2013-09-04 15:33:00,
2013-09-04 09:53:00,65.0,44.0,30.44,North,-999,-999.0,-999.0,47,-99.99,,,-99.99,,2013-09-04 15:53:00,
2013-09-04 10:04:00,65.0,44.0,30.44,North,-999,-999.0,-999.0,47,-99.99,,,-99.99,,2013-09-04 16:04:00,
2013-09-04 10:23:00,67.0,45.0,30.45,North,-999,-999.0,-999.0,44,-99.99,,,-99.99,,2013-09-04 16:23:00,
2013-09-04 10:34:00,67.0,45.0,30.45,North,-999,-999.0,-999.0,44,-99.99,,,-99.99,,2013-09-04 16:34:00,
2013-09-04 10:53:00,72.0,45.0,30.44,North,-999,-999.0,-999.0,38,-99.99,,,-99.99,,2013-09-04 16:53:00,
2013-09-04 11:03:00,72.0,45.0,30.44,North,-999,-999.0,-999.0,38,-99.99,,,-99.99,,2013-09-04 17:03:00,
2013-09-04 11:53:00,78.0,42.0,30.45,North,-999,-999.0,-999.0,28,-99.99,,,-99.99,,2013-09-04 17:53:00,
2013-09-04 12:02:00,78.0,42.0,30.45,North,-999,-999.0,-999.0,28,-99.99,,,-99.99,,2013-09-04 18:02:00,
2013-09-04 12:21:00,78.0,43.0,30.44,North,-999,-999.0,-999.0,28,-99.99,,,-99.99,,2013-09-04 18:21:00,
2013-09-04 12:32:00,78.0,43.0,30.44,North,-999,-999.0,-999.0,28,-99.99,,,-99.99,,2013-09-04 18:32:00,
2013-09-04 12:52:00,80.0,42.0,30.43,North,-999,-999.0,-999.0,25,-99.99,,,-99.99,,2013-09-04 18:52:00,
2013-09-04 13:02:00,80.0,42.0,30.43,North,-999,-999.0,-999.0,25,-99.99,,,-99.99,,2013-09-04 19:02:00,
2013-09-04 13:22:00,80.0,42.0,30.42,North,-999,-999.0,-999.0,25,-99.99,,,-99.99,,2013-09-04 19:22:00,
2013-09-04 13:32:00,80.0,42.0,30.42,North,-999,-999.0,-999.0,25,-99.99,,,-99.99,,2013-09-04 19:32:00,
2013-09-04 13:52:00,83.0,41.0,30.41,North,-999,-999.0,-999.0,22,-99.99,,,-99.99,,2013-09-04 19:52:00,
2013-09-04 14:02:00,83.0,41.0,30.41,North,-999,-999.0,-999.0,22,-99.99,,,-99.99,,2013-09-04 20:02:00,
2013-09-04 14:22:00,81.0,41.0,30.41,North,-999,-999.0,-999.0,23,-99.99,,,-99.99,,2013-09-04 20:22:00,
2013-09-04 14:32:00,81.0,41.0,30.41,North,-999,-999.0,-999.0,23,-99.99,,,-99.99,,2013-09-04 20:32:00,
2013-09-04 14:53:00,81.0,39.0,30.40,North,-999,-999.0,-999.0,22,-99.99,,,-99.99,,2013-09-04 20:53:00,
2013-09-04 15:02:00,81.0,39.0,30.40,North,-999,-999.0,-999.0,22,-99.99,,,-99.99,,2013-09-04 21:02:00,
2013-09-04 15:22:00,81.0,38.0,30.39,North,-999,-999.0,-999.0,21,-99.99,,,-99.99,,2013-09-04 21:22:00,
2013-09-04 15:34:00,81.0,38.0,30.39,North,-999,-999.0,-999.0,21,-99.99,,,-99.99,,2013-09-04 21:34:00,
2013-09-04 15:54:00,76.0,43.0,30.39,North,-999,-999.0,-999.0,30,-99.99,,,-99.99,,2013-09-04 21:54:00,
2013-09-04 16:04:00,76.0,43.0,30.39,North,-999,-999.0,-999.0,30,-99.99,,,-99.99,,2013-09-04 22:04:00,
2013-09-04 16:23:00,72.0,49.0,30.42,North,-999,-999.0,-999.0,43,-99.99,,,-99.99,,2013-09-04 22:23:00,
2013-09-04 16:33:00,72.0,49.0,30.42,North,-999,-999.0,-999.0,43,-99.99,,,-99.99,,2013-09-04 22:33:00,
2013-09-04 16:54:00,71.0,49.0,30.45,North,-999,-999.0,-999.0,44,-99.99,,,-99.99,,2013-09-04 22:54:00,
2013-09-04 17:03:00,71.0,49.0,30.45,North,-999,-999.0,-999.0,44,-99.99,,,-99.99,,2013-09-04 23:03:00,
2013-09-04 17:22:00,70.0,49.0,30.44,North,-999,-999.0,-999.0,47,-99.99,,,-99.99,,2013-09-04 23:22:00,
2013-09-04 17:30:00,71.0,49.0,30.42,North,-999,-999.0,-999.0,45,-99.99,,,-99.99,,2013-09-04 23:30:00,
2013-09-04 17:34:00,70.0,49.0,30.44,North,-999,-999.0,-999.0,47,-99.99,,,-99.99,,2013-09-04 23:34:00,
2013-09-04 17:52:00,71.0,49.0,30.42,North,-999,-999.0,-999.0,45,-99.99,,,-99.99,,2013-09-04 23:52:00,
2013-09-04 18:01:00,71.0,49.0,30.42,North,-999,-999.0,-999.0,45,-99.99,,,-99.99,,2013-09-05 00:01:00,
2013-09-04 18:12:00,71.0,49.0,30.42,North,-999,-999.0,-999.0,45,-99.99,,,-99.99,,2013-09-05 00:12:00,
2013-09-04 18:22:00,71.0,49.0,30.42,North,-999,-999.0,-999.0,45,-99.99,,,-99.99,,2013-09-05 00:22:00,
2013-09-04 18:52:00,72.0,50.0,30.42,North,-999,-999.0,-999.0,44,-99.99,,,-99.99,,2013-09-05 00:52:00,
2013-09-04 19:01:00,72.0,50.0,30.42,North,-999,-999.0,-999.0,44,-99.99,,,-99.99,,2013-09-05 01:01:00,
2013-09-04 19:22:00,72.0,49.0,30.41,North,-999,-999.0,-999.0,44,-99.99,,,-99.99,,2013-09-05 01:22:00,
2013-09-04 19:32:00,72.0,49.0,30.41,North,-999,-999.0,-999.0,44,-99.99,,,-99.99,,2013-09-05 01:32:00,
2013-09-04 19:52:00,71.0,49.0,30.41,North,-999,-999.0,-999.0,46,-99.99,,,-99.99,,2013-09-05 01:52:00,
2013-09-04 20:02:00,71.0,49.0,30.41,North,-999,-999.0,-999.0,46,-99.99,,,-99.99,,2013-09-05 02:02:00,
2013-09-04 20:22:00,70.0,49.0,30.41,North,-999,-999.0,-999.0,48,-99.99,,,-99.99,,2013-09-05 02:22:00,
2013-09-04 20:32:00,70.0,49.0,30.41,North,-999,-999.0,-999.0,48,-99.99,,,-99.99,,2013-09-05 02:32:00,
2013-09-04 20:42:00,70.0,49.0,30.41,North,-999,-999.0,-999.0,48,-99.99,,,-99.99,,2013-09-05 02:42:00,
2013-09-04 21:22:00,67.0,48.0,30.43,North,-999,-999.0,-999.0,50,-99.99,,,-99.99,,2013-09-05 03:22:00,
2013-09-04 21:34:00,67.0,48.0,30.43,North,-999,-999.0,-999.0,50,-99.99,,,-99.99,,2013-09-05 03:34:00,
2013-09-04 21:54:00,68.0,51.0,30.43,North,-999,-999.0,-999.0,54,-99.99,,,-99.99,,2013-09-05 03:54:00,
2013-09-04 22:04:00,68.0,51.0,30.43,North,-999,-999.0,-999.0,54,-99.99,,,-99.99,,2013-09-05 04:04:00,
2013-09-04 22:24:00,68.0,48.0,30.42,North,-999,-999.0,-999.0,49,-99.99,,,-99.99,,2013-09-05 04:24:00,
2013-09-04 22:34:00,68.0,48.0,30.42,North,-999,-999.0,-999.0,49,-99.99,,,-99.99,,2013-09-05 04:34:00,
2013-09-04 22:53:00,66.0,47.0,30.41,North,-999,-999.0,-999.0,50,-99.99,,,-99.99,,2013-09-05 04:53:00,
2013-09-04 23:03:00,66.0,47.0,30.41,North,-999,-999.0,-999.0,50,-99.99,,,-99.99,,2013-09-05 05:03:00,
2013-09-04 23:23:00,64.0,49.0,30.42,North,-999,-999.0,-999.0,56,-99.99,,,-99.99,,2013-09-05 05:23:00,
2013-09-04 23:34:00,64.0,49.0,30.42,North,-999,-999.0,-999.0,56,-99.99,,,-99.99,,2013-09-05 05:34:00,
2013-09-04 23:52:00,62.0,49.0,30.42,North,-999,-999.0,-999.0,61,-99.99,,,-99.99,,2013-09-05 05:52:00,